Location: ??????????
(54.8537°N, 38.8755°E)
Time: 16:05:23
(UTC+00:00)

Vanguard 3 - Pass Details

Date: 18 September 2024
Orbit: 507 x 3223 km, 33.3° (Epoch: 11 October)

Event Time Altitude Azimuth Distance (km) Brightness Sun altitude
Rises 02:08:17 0° 200° (SSW) 6,494 11.4 -8.6°
Reaches altitude 10° 02:13:53 10° 187° (S) 5,799 11.3 -7.8°
Maximum altitude 02:26:12 22° 146° (SE) 5,148 11.5 -6.1°
Drops below altitude 10° 02:38:46 10° 105° (ESE) 5,969 12.9 -4.3°
Sets 02:44:34 0° 92° (E) 6,731 14.1 -3.5°
